Location: Bron Breck
(40.6655°N, 111.8083°W)
Time: 23:31:19
(UTC+00:00)

Envisat - Pass Details

Date: 06 March 2021
Orbit: 764 x 766 km, 98.1° (Epoch: 12 April)

Event Time Altitude Azimuth Distance (km) Brightness Sun altitude
Rises 13:08:42 0° 12° (NNE) 3,240 6.4 -9.2°
Reaches altitude 10° 13:11:01 10° 13° (NNE) 2,310 5.7 -8.7°
Maximum altitude 13:16:07 89° 104° (ESE) 771 3.1 -7.8°
Drops below altitude 10° 13:21:11 10° 194° (SSW) 2,292 5.4 -6.8°
Sets 13:23:29 0° 194° (SSW) 3,214 6.1 -6.4°
